User: anonymous   Login
Location: Unspecified
(0.0000°N, 0.0000°E)
Time: 05:22:55
(UTC+00:00)
Language:

STARLINK-5803 - Orbit

View from above orbital plane
View from above orbital plane
View from above satellite
View from above satellite

Ground track
Ground track

The orbit is defined by the following mean orbital elements,

1 56008U          26145.60037972 +.00000000 +00000-0 -45732-5 0 00001
2 56008  43.0064 345.0955 0001463 262.6403  97.4282 15.27575668    00
Epoch (UTC): 25 May 2026 14:24:32
Eccentricity: 0.0001463
inclination: 43.0064°
perigee height: 482 km
apogee height: 484 km
right ascension of ascending node: 345.0955°
argument of perigee: 262.6403°
revolutions per day: 15.27575668
mean anomaly at epoch: 97.4282°

The dashed part of the orbit path shows where the satellite is in the earth's shadow,  

DLR